PEGASUS DEB, 25445

Orbit data source: Space-Track

PEGASUS DEB, 25445 is space debris in LEO originally from a launch on Thu, 19 May 1994 UTC launched from the Air Force Western Test Range (AFWTR). Debris objects in space refer to the collection of defunct objects orbiting the Earth. Examples of debris include non-operational satellites, rocket bodies, and fragments generated from explosions, collisions, or faulty payload assembly.

Loading next visibility...
Identifier
25445, 1994-029ADZ
Orbit
LEO
Country
Flag of USUS
Related business
Manufacturer
Unknown
Mission
Spacecraft
Bus & Motor
Unknown
Mass
Unknown
Launch date (UTC)
1994-05-19 (32 years ago)
Launch vehicle
Unknown
Launch site
Air Force Western Test Range (AFWTR)
Object type
Payload
Rocket body
Debris
Shape & HBR
Unknown shape, 0.1 m
Radar Cross Section
Small (<0.1 m²)

Expand to show TLE details & history
Last TLE update: 1 day ago

TLE from 1 day ago
0 PEGASUS DEB
1 25445U 94029ADZ 26119.11766697  .00002162  00000-0  29673-3 0  9997
2 25445  81.9855 155.8471 0131381  94.4554 321.3395 14.72073804529263
Epoch: 2026-04-29T02:49Z
TLE epoch observation values (Epoch: 2026-04-29T02:49:26.426Z)
Latitude
54.15935°
Longitude
-92.41775°
Altitude
591.698 km
Speed
7.608 km/s
True Right ascension
11h 08m 06s
True Declination
53° 59' 31"
Sunlit
Object was in daylight at epoch
Visualization orbit readout
Latitude
Unknown
Longitude
Unknown
Altitude
Unknown
Speed
Unknown
Apparent Right ascension
Unknown
Apparent Declination
Unknown
Sunlit
N/A
Visualization observer readout
Local Sidereal Time
14:31:07
Azimuth
Unknown
Elevation
Unknown
Doppler factor
Unknown
Orbital elements
Apogee altitude
743.868 km
Perigee altitude
559.155 km
Semi-major axis
7,029.648 km
Eccentricity
0.01314
Inclination
81.9855°
RAAN
155.8471°
Arg. of periapsis
94.4554°
True anomaly
320.38683°
Mean anomaly
321.3395°
Eccentric anomaly
320.86439°
Mean motion
3.6825 °/min
Orbital period
97.76 mins
BSTAR
0.00029673
Loading maneuver chart data...
Computing Atmospheric mass density...
Loading historical data...
Loading historical data...
Loading historical data...
Loading historical data...
Loading historical data...
Loading historical data...
Loading historical data...

Documentation

Showing up to 5 results
|